Simultaneous Nadir Overpasses (SNOs) Predictions

Prediction of SNOs between GOES-14 and AQUA Satellite Orbit:

Table of predicted SNOs for the next 14.0 days since TLE Epoch: 8/31/2024
Index Date Time (GOES-14) GOES-14 Lat,Lon AQUA Lat,Lon Distance(km) Time Diff (sec)
1 08/31/2024 09:31:13 -0.00,-108.36 0.03,-108.44 9.27 80
2 09/02/2024 09:11:14 -0.00,-108.36 -0.90,-104.21 472.92 80
3 09/02/2024 21:31:18 0.00,-108.31 -0.14,-109.06 85.28 80
4 09/04/2024 21:16:35 0.00,-108.32 0.74,-104.81 398.92 80
5 09/05/2024 09:36:30 -0.00,-108.38 0.27,-109.63 142.18 80
6 09/07/2024 09:16:24 0.00,-108.38 -0.63,-105.36 343.03 80
7 09/07/2024 21:36:25 0.00,-108.32 -0.43,-110.21 215.29 80
8 09/09/2024 21:21:36 0.00,-108.32 0.48,-105.93 271.18 80
9 09/10/2024 09:41:30 -0.00,-108.39 0.48,-110.75 268.68 80
10 09/12/2024 09:21:18 -0.00,-108.38 -0.44,-106.47 218.36 80
11 09/12/2024 21:41:18 0.01,-108.31 -0.63,-111.30 340.16 80
